SCP
0 0 0 0 0 0 0 -0 -0 -0 -0 -0 -0 -0 -0 -0 -0 -0 -0 0 0 0 0 0 0 0 0 0 0 0 0 0 -0 -0 -0 0 -0 -0 0 0 0 0 0 0 0
0 0 0 0 0 0 0 0 -0 -0 -0 -0 -0 -0 -0 -0 -0 -0 0 -0 -0 0 0 -0 -0 0 0 0 0 -0 0 0 0 0 0 0 0 0 0 0 0 0 0 0 0
0 0 0 0 0 0 0 0 -0 -0 -0 -0 -0 -0 -0 0 0 -0 -0 -0 -0 0 0 0 0 0 -0 -0 -0 -0 0 0 0 0 0 0 0 0 0 0 0 0 0 0 0
0 0 0 0 0 0 0 0 0 -0 -0 -0 -0 -0 -0 0 -0 0 -0 -0 -0 0 0 -0 -0 -0 -0 -0 0 0 0 0 0 0 0 0 0 0 0 0 0 0 0 0 0
0 0 0 0 0 0 0 0 0 0 0 -0 -0 -0 0 0 0 0 -0 -0 0 0 0 -0 -0 -0 -0 0 0 0 0 0 0 -0 0 0 0 0 0 0 0 0 0 0 0
0 0 0 0 0 0 0 0 0 0 0 0 0 -0 0 0 0 0 0 0 0 0 0 0 -0 -0 0 0 -0 0 -0 -0 -0 0 0 0 0 0 0 0 0 0 0 0 0
0 0 0 0 0 0 0 0 0 0 0 0 0 0 0 0 0 0 0 0 0 0 0 0 0 -0 -0 -0 -0 -0 -0 -0 0 0 0 0 0 0 0 0 0 0 0 0 0
0 0 0 0 0 0 0 0 0 0 0 0 0 0 0 0 0 0 0 0 0 0 0 0 0 -0 0 -0 -0 -0 0 0 0 0 0 0 0 0 0 0 0 0 0 0 0
0 0 0 0 0 0 0 0 0 0 0 0 0 0 0 0 0 0 0 0 0 0 0 0 0 0 0 0 0 0 0 0 0 0 0 0 0 0 0 0 0 0 0 0 0
0 0 0 0 0 0 0 0 0 0 0 0 0 0 0 0 0 0 0 0 0 0 0 0 0 0 0 0 0 0 0 0 0 0 0 0 0 0 0 0 0 0 0 0 0
0 0 0 0 0 0 0 0 0 0 0 0 0 0 0 0 0 0 0 0 0 0 0 0 0 0 0 0 0 0 0 0 0 0 0 0 0 0 0 0 0 0 0 0 0
0 0 0 0 0 0 0 0 0 0 0 0 0 0 0 0 0 0 0 0 0 0 0 0 0 0 0 0 0 0 0 0 0 0 0 0 0 0 0 0 0 0 0 0 0
0 0 0 0 0 0 0 0 0 0 0 0 0 0 0 0 0 0 0 0 0 0 0 0 0 0 0 0 0 0 0 0 0 0 0 0 0 0 0 0 0 0 0 0 0
0 0 0 0 0 0 0 0 0 0 0 0 0 0 0 0 0 0 0 0 0 0 0 0 0 0 0 0 0 0 0 0 0 0 0 0 0 0 0 0 0 0 0 0 0
0 0 0 0 0 0 0 0 0 0 0 0 0 0 0 0 0 0 0 0 0 0 0 0 0 0 0 0 0 0 0 0 0 0 0 0 0 0 0 0 0 0 0 0 0
0 0 0 0 0 0 0 0 0 0 0 0 0 0 0 0 0 0 0 0 0 0 0 0 0 0 0 0 0 0 0 0 0 0 0 0 0 0 0 0 0 0 0 0 0
0 0 0 0 0 0 0 0 0 0 0 0 0 0 0 0 0 0 0 0 0 0 0 0 0 0 0 0 0 0 0 0 0 0 0 0 0 0 0 0 0 0 0 0 0
0 0 0 0 0 0 0 0 0 0 0 0 0 0 0 0 0 0 0 0 0 0 0 0 0 0 0 0 0 0 0 0 0 0 0 0 0 0 0 0 0 0 0 0 0
0 0 0 0 0 0 0 0 0 0 0 0 0 0 0 0 0 0 0 0 0 0 0 0 0 0 0 0 0 0 0 0 0 0 0 0 0 0 0 0 0 0 0 0 0
0 0 0 0 0 0 0 0 0 0 0 0 0 0 0 0 0 0 0 0 0 0 0 0 0 0 0 0 0 0 0 0 0 0 0 0 0 0 0 0 0 0 0 0 0
0 0 0 0 0 0 0 0 0 0 0 0 0 0 0 0 0 0 0 0 0 0 0 0 0 0 0 0 0 0 0 0 0 0 0 0 0 0 0 0 0 0 0 0 0
0 0 0 0 0 0 0 0 0 0 0 0 0 0 0 0 0 0 0 0 0 0 0 0 0 0 0 0 0 0 0 0 0 0 0 0 0 0 0 0 0 0 0 0 0
0 0 0 0 0 0 0 0 0 0 0 0 0 0 0 0 0 0 0 0 0 0 0 0 0 0 0 0 0 0 0 0 0 0 0 0 0 0 0 0 0 0 0 0 0
0 0 0 0 0 0 0 0 0 0 0 0 0 0 0 0 0 0 0 0 0 0 0 0 0 0 0 0 0 0 0 0 0 0 0 0 0 0 0 0 0 0 0 0 0
0 0 0 0 0 0 0 0 0 0 0 0 0 0 0 0 0 0 0 0 0 0 0 0 0 0 0 0 0 0 0 0 0 0 0 0 0 0 0 0 0 0 0 0 0
0 0 0 0 0 0 0 0 0 0 0 0 0 0 0 0 0 0 0 0 0 0 0 0 0 0 0 0 0 0 0 0 0 0 0 0 0 0 0 0 0 0 0 0 0
0 0 0 0 0 0 0 0 0 0 0 0 0 0 0 0 0 0 0 0 0 0 0 0 0 0 0 0 0 0 0 0 0 0 0 0 0 0 0 0 0 0 0 -0 -0
Wind_Speed_500mb
10 10 10 11 12 14 15 17 22 22 20 15 10 2 6 16 26 5 13 16 17 15 14 11 15 19 18 21 17 10 10 5 10 11 7 5 8 16 17 26 37 20 24 22 34
11 12 12 13 13 14 15 16 18 19 16 13 11 3 1 6 11 24 16 14 12 12 13 9 12 13 13 13 14 15 9 10 8 12 8 18 15 12 12 17 19 23 21 27 40
12 15 12 14 16 14 15 16 17 16 14 10 11 5 4 4 4 17 15 9 11 12 12 12 17 18 17 17 18 10 9 12 6 23 33 27 34 12 10 9 13 17 22 34 45
15 17 14 14 16 17 15 15 15 12 12 11 8 7 6 2 3 11 14 8 11 12 12 9 8 11 13 10 9 15 12 9 13 13 13 10 14 22 22 13 23 19 24 34 49
17 17 18 16 16 16 16 15 13 9 10 12 9 5 5 5 9 12 14 10 12 13 10 14 15 15 13 14 15 16 11 19 20 21 16 23 16 16 24 27 19 18 29 41 48
15 18 18 17 17 17 15 15 15 11 10 10 9 4 2 5 8 11 13 12 12 13 10 4 14 33 27 11 10 16 25 19 11 12 12 11 4 5 9 15 17 24 36 43 47
17 18 16 16 16 17 16 14 14 11 10 8 7 5 3 8 7 9 13 14 18 17 25 36 23 4 20 13 23 26 12 10 10 3 3 9 5 6 9 12 22 30 38 44 53
18 18 16 14 15 16 16 13 11 9 9 6 4 2 4 7 8 9 12 16 21 28 31 30 29 30 13 37 11 9 9 7 4 3 1 7 8 7 7 8 26 32 40 49 56
18 18 17 14 13 13 12 10 8 6 6 4 3 0 4 5 6 10 12 16 18 23 24 19 14 17 14 11 9 12 6 4 2 4 1 5 4 7 12 19 24 32 43 52 61
17 17 17 13 12 10 8 6 4 6 3 1 0 3 1 1 5 8 14 16 11 20 12 5 11 8 8 7 9 11 8 3 5 1 2 4 4 7 16 22 25 36 46 56 65
21 22 17 15 9 9 9 4 3 2 1 4 3 2 1 3 7 7 11 13 11 5 7 10 10 6 8 4 6 12 8 7 1 2 1 7 5 10 10 22 33 41 48 58 66
25 24 20 15 10 7 6 2 2 4 2 3 2 1 2 3 3 6 9 7 5 5 3 12 5 2 4 7 10 8 8 2 2 2 1 2 6 11 9 11 24 33 47 58 69
26 25 20 17 13 7 3 1 3 4 4 3 3 3 3 2 4 4 6 10 11 8 7 10 4 4 7 6 8 6 7 5 1 9 1 4 6 9 4 8 18 33 44 55 65
34 27 24 17 12 9 5 6 10 9 9 5 3 2 4 7 7 7 9 7 9 9 8 10 0 7 8 6 4 5 5 8 6 7 5 6 8 8 6 2 12 40 49 50 59
39 30 25 21 10 16 11 16 12 9 5 7 3 3 5 4 9 7 8 7 9 8 8 6 8 8 6 5 2 6 5 6 4 6 7 1 5 8 3 3 9 29 37 45 50
46 39 30 26 17 16 22 24 13 7 14 4 3 5 5 7 5 5 6 12 14 10 12 5 3 4 6 7 7 11 9 10 7 4 4 5 8 8 6 8 3 14 27 36 45
55 48 39 29 29 26 30 25 7 6 10 6 7 7 6 2 3 2 5 7 9 10 0 8 1 1 7 11 6 5 9 4 9 4 8 4 3 10 10 6 6 7 18 27 38
61 53 44 37 30 39 31 10 8 7 11 4 8 10 6 7 1 2 7 5 5 8 6 11 7 12 6 5 11 9 8 8 12 5 5 2 10 6 8 16 12 7 11 19 34
67 53 43 47 41 43 37 5 12 12 12 18 5 10 6 4 4 4 9 7 13 18 12 9 1 2 2 2 4 9 8 5 11 2 5 6 4 3 9 9 11 5 9 19 29
76 60 60 51 45 38 9 9 10 5 12 6 10 5 14 12 9 10 12 7 7 12 2 11 7 2 2 3 1 5 5 6 3 3 7 8 9 8 21 17 13 10 9 16 19
82 37 50 59 47 25 16 13 11 13 13 11 11 8 7 15 15 10 12 3 8 9 7 9 6 1 4 13 15 7 5 6 3 7 7 3 9 7 24 18 20 21 14 16 14
60 9 59 58 21 5 5 12 8 10 11 4 5 6 13 12 12 9 16 5 18 21 15 9 8 8 12 4 5 4 11 11 8 10 5 2 10 2 15 31 36 29 21 18 15
54 17 58 71 18 13 4 9 9 7 10 13 13 7 5 14 6 9 8 3 14 13 13 13 4 4 7 5 4 10 11 8 6 4 12 10 7 5 20 26 31 33 26 22 19
35 10 19 42 17 14 13 9 10 16 7 11 9 9 7 4 2 11 6 2 5 8 8 6 5 8 11 7 9 9 11 16 10 6 8 11 9 12 18 20 33 35 31 28 24
36 14 27 17 29 10 20 21 23 13 9 19 6 14 16 8 7 10 6 5 4 11 5 6 9 5 6 6 6 8 9 20 29 24 15 4 19 27 35 29 54 49 39 35 31
34 16 24 18 39 35 28 21 27 13 20 14 11 22 15 14 16 18 16 10 11 8 11 2 5 5 6 3 7 10 16 19 32 31 19 16 15 11 44 40 46 56 51 46 40
47 29 32 34 26 34 25 24 37 27 20 16 30 14 15 14 10 4 14 24 26 18 14 12 10 7 9 7 7 14 30 36 22 18 38 23 21 22 18 47 63 66 62 57 50
Wind_Direction_500mb
255 272 282 297 315 329 341 353 350 350 355 354 353 12 76 60 50 64 70 52 65 94 94 99 121 119 91 74 66 81 70 110 161 155 183 8 132 93 82 60 63 71 64 21 349
262 268 282 293 303 319 331 345 348 347 352 347 350 328 65 51 54 52 41 48 76 110 105 116 130 122 70 40 29 61 86 159 179 147 130 80 108 121 92 71 64 64 41 6 354
274 276 281 293 301 313 325 334 344 349 349 346 348 343 287 342 44 26 28 56 101 120 116 107 108 97 68 42 21 40 124 151 146 137 122 100 77 90 154 50 62 66 28 4 359
284 281 282 288 298 309 318 326 337 347 356 340 348 3 18 349 162 24 23 61 110 121 136 130 121 72 64 56 44 92 97 136 145 146 148 123 112 77 81 104 97 64 27 6 1
291 291 290 289 292 302 312 319 325 328 354 353 354 330 4 78 59 53 32 58 115 105 128 114 103 103 105 102 76 79 131 108 113 110 109 134 119 107 93 109 83 37 21 9 2
296 297 292 293 295 297 304 312 314 310 302 331 357 341 5 85 43 56 59 61 127 133 120 82 116 113 93 74 71 117 108 107 99 92 116 127 154 116 105 104 54 25 16 4 0
303 299 292 293 294 297 300 308 309 309 299 297 315 7 64 136 83 72 79 87 106 113 118 114 112 113 112 99 106 109 77 58 40 33 103 136 46 88 128 81 49 26 8 1 1
305 301 293 290 291 295 297 310 306 311 302 277 325 356 109 134 97 82 101 99 110 114 113 108 106 93 87 118 72 72 65 96 301 49 106 132 261 104 83 45 45 16 6 3 2
300 303 295 288 287 288 299 307 314 316 320 277 279 185 125 139 121 99 125 112 123 127 121 106 96 87 105 92 51 12 156 150 284 79 236 138 235 95 76 60 43 13 9 3 359
279 293 297 293 297 293 289 275 317 331 307 261 339 308 144 190 118 110 134 134 121 126 114 84 77 77 44 73 200 185 158 149 182 180 89 192 202 119 71 62 31 16 8 5 0
257 266 284 300 298 297 282 271 253 273 2 88 45 76 65 134 117 119 140 136 133 75 61 26 77 172 164 104 111 108 105 134 159 172 100 223 182 165 97 51 27 17 9 5 1
256 260 265 261 271 280 292 285 97 159 85 77 121 93 169 134 128 110 144 133 104 91 7 30 88 144 86 59 91 94 114 167 299 41 136 176 236 154 127 72 38 15 11 7 360
244 254 257 256 256 242 236 244 109 45 48 325 173 156 209 216 98 64 127 113 94 73 21 132 144 117 102 65 94 45 135 168 187 336 355 350 287 164 179 120 27 24 16 10 5
239 235 249 254 246 210 187 121 59 16 56 258 192 251 206 170 57 80 90 114 53 133 110 89 84 117 89 92 94 139 110 107 90 57 239 60 274 230 199 349 19 17 14 7 4
233 224 239 227 229 184 166 117 76 61 226 79 172 191 141 148 125 50 74 88 102 114 116 193 136 124 113 123 67 140 106 97 99 97 40 199 78 257 352 312 0 11 7 7 9
223 219 221 223 218 186 153 114 86 64 242 141 143 157 110 42 48 103 107 89 110 81 39 91 65 62 119 81 70 134 81 47 47 82 4 208 136 268 203 202 348 3 11 7 13
221 213 207 218 214 170 144 123 77 212 3 186 159 154 94 133 46 31 131 124 145 97 100 11 2 7 136 95 45 91 92 348 347 6 227 133 52 253 177 159 124 26 15 16 19
217 209 200 204 192 162 146 70 192 211 207 288 125 107 164 160 326 138 126 172 205 99 114 145 290 174 183 190 163 175 162 159 217 215 282 308 238 272 156 138 126 81 41 32 29
207 200 195 192 184 167 141 159 220 197 164 153 42 115 204 202 162 102 209 215 203 177 158 130 92 48 94 113 123 172 188 141 108 31 42 213 278 246 151 157 150 141 68 50 40
200 190 191 186 185 178 144 231 232 187 131 144 201 177 167 181 159 186 183 207 184 194 118 190 88 315 122 96 317 151 160 90 21 162 264 255 258 228 191 195 185 184 110 79 63
193 174 190 183 180 188 216 226 253 197 163 173 190 133 197 165 175 196 201 201 160 143 144 139 107 187 108 202 181 153 198 197 140 177 188 268 255 222 182 172 180 176 148 118 90
178 163 166 173 159 217 202 198 242 183 159 180 136 121 172 164 162 207 205 249 169 152 161 180 115 176 195 224 183 234 203 177 143 205 228 140 273 120 146 167 167 170 159 141 128
161 130 164 174 183 201 257 279 244 164 191 167 200 218 157 170 169 190 172 101 177 171 161 179 208 66 354 12 22 212 199 200 121 101 200 153 244 138 147 162 178 169 169 159 157
159 138 156 189 213 185 148 222 219 213 196 155 163 134 111 149 149 168 139 152 149 162 145 120 155 193 194 153 124 203 194 186 174 159 172 227 161 202 193 184 185 187 180 170 170
185 185 171 179 211 184 177 177 188 178 227 184 211 201 162 141 121 165 130 116 24 152 108 148 191 180 241 177 185 215 195 192 208 210 190 213 205 196 196 192 191 187 182 177 179
174 158 181 164 189 184 191 199 193 162 159 219 207 179 181 161 185 183 146 186 186 166 157 232 168 102 303 293 243 259 229 206 221 233 256 255 258 207 192 185 186 188 187 185 185
213 185 173 167 163 179 202 183 203 159 216 204 188 138 190 201 169 192 145 161 154 148 169 154 134 100 268 342 323 296 223 202 206 209 215 210 224 147 169 182 190 190 192 189 187
Wind_Speed_850mb
10 10 10 11 12 14 15 17 22 22 20 15 10 2 6 16 26 5 13 16 17 15 14 11 15 19 18 21 17 10 10 5 10 11 7 5 8 16 17 26 37 20 24 22 34
11 12 12 13 13 14 15 16 18 19 16 13 11 3 1 6 11 24 16 14 12 12 13 9 12 13 13 13 14 15 9 10 8 12 8 18 15 12 12 17 19 23 21 27 40
12 15 12 14 16 14 15 16 17 16 14 10 11 5 4 4 4 17 15 9 11 12 12 12 17 18 17 17 18 10 9 12 6 23 33 27 34 12 10 9 13 17 22 34 45
15 17 14 14 16 17 15 15 15 12 12 11 8 7 6 2 3 11 14 8 11 12 12 9 8 11 13 10 9 15 12 9 13 13 13 10 14 22 22 13 23 19 24 34 49
17 17 18 16 16 16 16 15 13 9 10 12 9 5 5 5 9 12 14 10 12 13 10 14 15 15 13 14 15 16 11 19 20 21 16 23 16 16 24 27 19 18 29 41 48
15 18 18 17 17 17 15 15 15 11 10 10 9 4 2 5 8 11 13 12 12 13 10 4 14 33 27 11 10 16 25 19 11 12 12 11 4 5 9 15 17 24 36 43 47
17 18 16 16 16 17 16 14 14 11 10 8 7 5 3 8 7 9 13 14 18 17 25 36 23 4 20 13 23 26 12 10 10 3 3 9 5 6 9 12 22 30 38 44 53
18 18 16 14 15 16 16 13 11 9 9 6 4 2 4 7 8 9 12 16 21 28 31 30 29 30 13 37 11 9 9 7 4 3 1 7 8 7 7 8 26 32 40 49 56
18 18 17 14 13 13 12 10 8 6 6 4 3 0 4 5 6 10 12 16 18 23 24 19 14 17 14 11 9 12 6 4 2 4 1 5 4 7 12 19 24 32 43 52 61
17 17 17 13 12 10 8 6 4 6 3 1 0 3 1 1 5 8 14 16 11 20 12 5 11 8 8 7 9 11 8 3 5 1 2 4 4 7 16 22 25 36 46 56 65
21 22 17 15 9 9 9 4 3 2 1 4 3 2 1 3 7 7 11 13 11 5 7 10 10 6 8 4 6 12 8 7 1 2 1 7 5 10 10 22 33 41 48 58 66
25 24 20 15 10 7 6 2 2 4 2 3 2 1 2 3 3 6 9 7 5 5 3 12 5 2 4 7 10 8 8 2 2 2 1 2 6 11 9 11 24 33 47 58 69
26 25 20 17 13 7 3 1 3 4 4 3 3 3 3 2 4 4 6 10 11 8 7 10 4 4 7 6 8 6 7 5 1 9 1 4 6 9 4 8 18 33 44 55 65
34 27 24 17 12 9 5 6 10 9 9 5 3 2 4 7 7 7 9 7 9 9 8 10 0 7 8 6 4 5 5 8 6 7 5 6 8 8 6 2 12 40 49 50 59
39 30 25 21 10 16 11 16 12 9 5 7 3 3 5 4 9 7 8 7 9 8 8 6 8 8 6 5 2 6 5 6 4 6 7 1 5 8 3 3 9 29 37 45 50
46 39 30 26 17 16 22 24 13 7 14 4 3 5 5 7 5 5 6 12 14 10 12 5 3 4 6 7 7 11 9 10 7 4 4 5 8 8 6 8 3 14 27 36 45
55 48 39 29 29 26 30 25 7 6 10 6 7 7 6 2 3 2 5 7 9 10 0 8 1 1 7 11 6 5 9 4 9 4 8 4 3 10 10 6 6 7 18 27 38
61 53 44 37 30 39 31 10 8 7 11 4 8 10 6 7 1 2 7 5 5 8 6 11 7 12 6 5 11 9 8 8 12 5 5 2 10 6 8 16 12 7 11 19 34
67 53 43 47 41 43 37 5 12 12 12 18 5 10 6 4 4 4 9 7 13 18 12 9 1 2 2 2 4 9 8 5 11 2 5 6 4 3 9 9 11 5 9 19 29
76 60 60 51 45 38 9 9 10 5 12 6 10 5 14 12 9 10 12 7 7 12 2 11 7 2 2 3 1 5 5 6 3 3 7 8 9 8 21 17 13 10 9 16 19
82 37 50 59 47 25 16 13 11 13 13 11 11 8 7 15 15 10 12 3 8 9 7 9 6 1 4 13 15 7 5 6 3 7 7 3 9 7 24 18 20 21 14 16 14
60 9 59 58 21 5 5 12 8 10 11 4 5 6 13 12 12 9 16 5 18 21 15 9 8 8 12 4 5 4 11 11 8 10 5 2 10 2 15 31 36 29 21 18 15
54 17 58 71 18 13 4 9 9 7 10 13 13 7 5 14 6 9 8 3 14 13 13 13 4 4 7 5 4 10 11 8 6 4 12 10 7 5 20 26 31 33 26 22 19
35 10 19 42 17 14 13 9 10 16 7 11 9 9 7 4 2 11 6 2 5 8 8 6 5 8 11 7 9 9 11 16 10 6 8 11 9 12 18 20 33 35 31 28 24
36 14 27 17 29 10 20 21 23 13 9 19 6 14 16 8 7 10 6 5 4 11 5 6 9 5 6 6 6 8 9 20 29 24 15 4 19 27 35 29 54 49 39 35 31
34 16 24 18 39 35 28 21 27 13 20 14 11 22 15 14 16 18 16 10 11 8 11 2 5 5 6 3 7 10 16 19 32 31 19 16 15 11 44 40 46 56 51 46 40
47 29 32 34 26 34 25 24 37 27 20 16 30 14 15 14 10 4 14 24 26 18 14 12 10 7 9 7 7 14 30 36 22 18 38 23 21 22 18 47 63 66 62 57 50
Wind_Direction_850mb
255 272 282 297 315 329 341 353 350 350 355 354 353 12 76 60 50 64 70 52 65 94 94 99 121 119 91 74 66 81 70 110 161 155 183 8 132 93 82 60 63 71 64 21 349
262 268 282 293 303 319 331 345 348 347 352 347 350 328 65 51 54 52 41 48 76 110 105 116 130 122 70 40 29 61 86 159 179 147 130 80 108 121 92 71 64 64 41 6 354
274 276 281 293 301 313 325 334 344 349 349 346 348 343 287 342 44 26 28 56 101 120 116 107 108 97 68 42 21 40 124 151 146 137 122 100 77 90 154 50 62 66 28 4 359
284 281 282 288 298 309 318 326 337 347 356 340 348 3 18 349 162 24 23 61 110 121 136 130 121 72 64 56 44 92 97 136 145 146 148 123 112 77 81 104 97 64 27 6 1
291 291 290 289 292 302 312 319 325 328 354 353 354 330 4 78 59 53 32 58 115 105 128 114 103 103 105 102 76 79 131 108 113 110 109 134 119 107 93 109 83 37 21 9 2
296 297 292 293 295 297 304 312 314 310 302 331 357 341 5 85 43 56 59 61 127 133 120 82 116 113 93 74 71 117 108 107 99 92 116 127 154 116 105 104 54 25 16 4 0
303 299 292 293 294 297 300 308 309 309 299 297 315 7 64 136 83 72 79 87 106 113 118 114 112 113 112 99 106 109 77 58 40 33 103 136 46 88 128 81 49 26 8 1 1
305 301 293 290 291 295 297 310 306 311 302 277 325 356 109 134 97 82 101 99 110 114 113 108 106 93 87 118 72 72 65 96 301 49 106 132 261 104 83 45 45 16 6 3 2
300 303 295 288 287 288 299 307 314 316 320 277 279 185 125 139 121 99 125 112 123 127 121 106 96 87 105 92 51 12 156 150 284 79 236 138 235 95 76 60 43 13 9 3 359
279 293 297 293 297 293 289 275 317 331 307 261 339 308 144 190 118 110 134 134 121 126 114 84 77 77 44 73 200 185 158 149 182 180 89 192 202 119 71 62 31 16 8 5 0
257 266 284 300 298 297 282 271 253 273 2 88 45 76 65 134 117 119 140 136 133 75 61 26 77 172 164 104 111 108 105 134 159 172 100 223 182 165 97 51 27 17 9 5 1
256 260 265 261 271 280 292 285 97 159 85 77 121 93 169 134 128 110 144 133 104 91 7 30 88 144 86 59 91 94 114 167 299 41 136 176 236 154 127 72 38 15 11 7 360
244 254 257 256 256 242 236 244 109 45 48 325 173 156 209 216 98 64 127 113 94 73 21 132 144 117 102 65 94 45 135 168 187 336 355 350 287 164 179 120 27 24 16 10 5
239 235 249 254 246 210 187 121 59 16 56 258 192 251 206 170 57 80 90 114 53 133 110 89 84 117 89 92 94 139 110 107 90 57 239 60 274 230 199 349 19 17 14 7 4
233 224 239 227 229 184 166 117 76 61 226 79 172 191 141 148 125 50 74 88 102 114 116 193 136 124 113 123 67 140 106 97 99 97 40 199 78 257 352 312 0 11 7 7 9
223 219 221 223 218 186 153 114 86 64 242 141 143 157 110 42 48 103 107 89 110 81 39 91 65 62 119 81 70 134 81 47 47 82 4 208 136 268 203 202 348 3 11 7 13
221 213 207 218 214 170 144 123 77 212 3 186 159 154 94 133 46 31 131 124 145 97 100 11 2 7 136 95 45 91 92 348 347 6 227 133 52 253 177 159 124 26 15 16 19
217 209 200 204 192 162 146 70 192 211 207 288 125 107 164 160 326 138 126 172 205 99 114 145 290 174 183 190 163 175 162 159 217 215 282 308 238 272 156 138 126 81 41 32 29
207 200 195 192 184 167 141 159 220 197 164 153 42 115 204 202 162 102 209 215 203 177 158 130 92 48 94 113 123 172 188 141 108 31 42 213 278 246 151 157 150 141 68 50 40
200 190 191 186 185 178 144 231 232 187 131 144 201 177 167 181 159 186 183 207 184 194 118 190 88 315 122 96 317 151 160 90 21 162 264 255 258 228 191 195 185 184 110 79 63
193 174 190 183 180 188 216 226 253 197 163 173 190 133 197 165 175 196 201 201 160 143 144 139 107 187 108 202 181 153 198 197 140 177 188 268 255 222 182 172 180 176 148 118 90
178 163 166 173 159 217 202 198 242 183 159 180 136 121 172 164 162 207 205 249 169 152 161 180 115 176 195 224 183 234 203 177 143 205 228 140 273 120 146 167 167 170 159 141 128
161 130 164 174 183 201 257 279 244 164 191 167 200 218 157 170 169 190 172 101 177 171 161 179 208 66 354 12 22 212 199 200 121 101 200 153 244 138 147 162 178 169 169 159 157
159 138 156 189 213 185 148 222 219 213 196 155 163 134 111 149 149 168 139 152 149 162 145 120 155 193 194 153 124 203 194 186 174 159 172 227 161 202 193 184 185 187 180 170 170
185 185 171 179 211 184 177 177 188 178 227 184 211 201 162 141 121 165 130 116 24 152 108 148 191 180 241 177 185 215 195 192 208 210 190 213 205 196 196 192 191 187 182 177 179
174 158 181 164 189 184 191 199 193 162 159 219 207 179 181 161 185 183 146 186 186 166 157 232 168 102 303 293 243 259 229 206 221 233 256 255 258 207 192 185 186 188 187 185 185
213 185 173 167 163 179 202 183 203 159 216 204 188 138 190 201 169 192 145 161 154 148 169 154 134 100 268 342 323 296 223 202 206 209 215 210 224 147 169 182 190 190 192 189 187